Location: Jetmore
(38.0845°N, 99.8935°W)
Time: 03:17:32
(UTC+00:00)

Nauka - Pass Details

Date: 20 September 2021
Orbit: 418 x 423 km, 51.6° (Epoch: 15 October)

Event Time Altitude Azimuth Distance (km) Brightness Sun altitude
Rises 01:42:40 0° 257° (WSW) 2,353 ? -12.9°
Reaches altitude 10° 01:44:58 10° 270° (W) 1,493 ? -13.4°
Maximum altitude 01:47:53 27° 330° (NNW) 843 ? -13.9°
Drops below altitude 10° 01:50:49 10° 31° (NNE) 1,501 ? -14.5°
Enters shadow 01:51:35 - 36° (NE) 1,777 ? -14.7°
